Regional Weather Roundup
Issued by NWS

Home | Current Version | Previous Version | Text Only | Print | Product List | Glossary On
Versions: 1 2 3 4 5 6 7 8 9 10 11 12 13 14 15 16 17 18 19 20 21 22 23 24 25 26 27
000
ASUS42 KTBW 211818
RWRFL
FLORIDA REGIONAL WEATHER ROUNDUP
NATIONAL WEATHER SERVICE TAMPA BAY RUSKIN FL
100 PM EST TUE NOV 21 2017

NOTE: "FAIR" INDICATES FEW OR NO CLOUDS BELOW 12,000 FEET WITH NO
SIGNIFICANT WEATHER AND/OR OBSTRUCTIONS TO VISIBILITY.

FLZ001>010-012>015-112-114-115-211900-
PANHANDLE FLORIDA

CITY           SKY/WX    TMP DP  RH WIND       PRES   REMARKS
PENSACOLA      PTSUNNY   64  47  53 VRB7      30.01F
PENSACOLA NAS  CLOUDY    65  47  52 N6        30.00F
MILTON NAS     PTSUNNY   64  51  62 N7        30.01
CRESTVIEW      CLOUDY    61  51  70 NE5       30.02F
DUKE FIELD     CLOUDY    62  51  66 N5        30.00F
VALPARAISO     CLOUDY    64  51  62 N8        29.99F
MARY ESTHER    PTSUNNY   68  54  60 N7        29.97F
PANAMA CITY    PTSUNNY   68  56  65 NE7       29.97F
TYNDALL AFB    MOSUNNY   65  58  78 E5        29.97F
APALACHICOLA   PTSUNNY   67  65  93 E8        29.96F

STATION/POSITION SKY/WX   TEMP    WIND        PRES    WAVE   SWELL
                          AIR SEA DIR/SP/G            HT/PER HT/PER
                          (F)     (DEG/KT/KT) (MB)    (FT/S) (FT/S)
29.2N   88.2W              70 78   50/  4/  6 1015.4
28.8N   86.0W              73 77  180/  6/  8 1013.5F   5/ 7   5/ 7
PANAMA CITY BEAC           63 69   40/  8/ 11 1015.6F
TOWER C                    70     120/ 16/ 18 1014.3F
28.5N   84.5W              72 75  120/ 14/ 16 1013.9F   6/ 6   2/12

$$
FLZ011-016>038-118-127-128-134-139-239-211900-
NORTH FLORIDA

CITY           SKY/WX    TMP DP  RH WIND       PRES   REMARKS
MARIANNA       CLOUDY    69  56  62 VRB3      29.99F
TALLAHASSEE    CLOUDY    67  59  75 E9        29.97F
PERRY          CLOUDY    65  60  81 NE3       30.00F
LIVE OAK       PTSUNNY   70  61  73 NE5       30.01F
CROSS CITY     CLOUDY    69  63  82 CALM      30.03F
LAKE CITY      CLOUDY    72  63  73 CALM      30.00F
GAINESVILLE    CLOUDY    75  62  64 S6        30.01F
WILLISTON      MOSUNNY   82  63  51 E12       29.98F
PALATKA        PTSUNNY   75  64  69 SE8       29.99F
MAYPORT NAS    CLOUDY    78  63  59 SE10      30.00F
JACKSONVILLE   CLOUDY    78  62  57 SE10      29.99F
JAX NAS        CLOUDY    78  62  57 SE12      30.00F
JAX CECIL      MOSUNNY   77  64  65 SE9       29.99F
ST AUGUSTINE   LGT RAIN  74  66  76 SE13      30.00F
PALM COAST     MOSUNNY   72  66  83 SE5       29.99F

STATION/POSITION SKY/WX   TEMP    WIND        PRES    WAVE   SWELL
                          AIR SEA DIR/SP/G            HT/PER HT/PER
                          (F)     (DEG/KT/KT) (MB)    (FT/S) (FT/S)
SHELL POINT      NOT AVBL
KEATON BEACH               65      20/  2/  4 1015.1F
CEDAR KEY                  67     100/  4/  4 1015.2F
FERNANDINA                 74 66  140/  5/  7 1017.1F
30.7N   81.3W                 68                N/A     4/ 6
MAYPORT                    76 67  170/  5/  8 1016.5F
31.4N   80.9W              70 68  100/  8/ 10 1016.7F   4/ 7   3/ 7
ST AUGUSTINE               71 68  100/  4/  5 1015.7F

$$
FLZ040-043>046-052-053-057-058-063-144-211900-
INTERIOR CENTRAL FLORIDA

CITY           SKY/WX    TMP DP  RH WIND       PRES   REMARKS
OCALA          PTSUNNY   79  64  60 SE9G17    29.99
THE VILLAGES     N/A     75  66  73 E8        29.89F HAZE
LEESBURG       CLOUDY    75  67  76 SE3       29.99F
SANFORD        LGT RAIN  68  66  93 SE12      30.01S FOG
ORLANDO EXEC   LGT RAIN  70  68  93 E10       29.99F
ORLANDO INTL   RAIN      69  68  96 E15       29.99F
KISSIMMEE      LGT RAIN  69  67  93 SE13      30.00F
WINTER HAVEN   LGT RAIN  71  68  90 SE6       30.00F
LAKELAND       CLOUDY    72  70  94 E5        29.99F
BARTOW         PTSUNNY   70  70 100 E6        29.99F
SEBRING        MOCLDY    74  68  82 NE7       29.98F
OKEECHOBEE     PTSUNNY   73  70  88 NW3       29.96F

$$
FLZ041-047-054-059-064-141-147-211900-
EAST CENTRAL FLORIDA

CITY           SKY/WX    TMP DP  RH WIND       PRES   REMARKS
ORMOND BEACH   PTSUNNY   73  66  78 SE12G17   30.00F
DAYTONA BEACH  LGT RAIN  70  67  90 SE7G18    30.00F
DELAND         CLOUDY    73  66  78 SE15      29.99F
NEW SMYRNA BEA TSTM      68  66  94 SE12G21   30.03  VSB 1
JFK SPACE CTR  RAIN      70  70 100 S5        29.99F FOG
TITUSVILLE     LGT RAIN  68  66  94 S6        30.01F
CAPE CANAVERAL RAIN      70  68  94 S7        29.98F
PATRICK AFB    DRIZZLE   70  70 100 E3        29.97F
MELBOURNE      CLOUDY    73  68  84 N3        29.98F
VERO BEACH     PTSUNNY   77  69  76 SE14      29.97F
FT PIERCE      PTSUNNY   80  69  69 S9        29.96F
STUART         MOSUNNY   82  68  61 SE9       29.97F

STATION/POSITION SKY/WX   TEMP    WIND        PRES    WAVE   SWELL
                          AIR SEA DIR/SP/G            HT/PER HT/PER
                          (F)     (DEG/KT/KT) (MB)    (FT/S) (FT/S)
28.5N   80.2W              76 77  120/ 16/ 21 1015.2F   8/ 8   2/11
TRIDENT PIER                      180/  4/  6   N/A
27.5N   80.2W                 75                N/A     7/ 7

$$
FLZ050-056-061-142-242-148-248-149-249-151-251-155-255-
160-260-211900-
WEST CENTRAL FLORIDA

CITY           SKY/WX    TMP DP  RH WIND       PRES   REMARKS
CRYSTAL RIVER  CLOUDY    77  63  61 SE5       29.97F
INVERNESS      CLOUDY    77  64  65 SE7       29.98F
BROOKSVILLE    PTSUNNY   77  64  64 SE14      29.97F
CLEARWATER AIR RAIN      72  64  78 SE7G16    29.97F
ST PETE CLEARW CLOUDY    74  66  76 SE10      29.97F
TAMPA INTL     CLOUDY    75  65  70 SE9       29.97F
TAMPA EXEC     CLOUDY    73  64  73 SE7       29.99F
PLANT CITY     LGT RAIN  72  66  83 SE5       30.00F
MACDILL AFB    RAIN      73  70  91 SE9       29.97F
PETER O KNIGHT   N/A     72  66  83 SE8       29.98F
ST PETERSBURG  CLOUDY    72  67  84 SE6       29.96F
SARASOTA       CLOUDY    74  66  76 SE9       29.95F
VENICE         FAIR      75  68  78 E7        29.96F

STATION/POSITION SKY/WX   TEMP    WIND        PRES    WAVE   SWELL
                          AIR SEA DIR/SP/G            HT/PER HT/PER
                          (F)     (DEG/KT/KT) (MB)    (FT/S) (FT/S)
27.3N   84.2W                 77                N/A     5/ 6
CLEARWATER BEACH           73 69  140/  9/ 16 1015.3F
MIDDLE TAMPA BAY           71     150/ 12/ 14 1015.0F
VENICE                     74 71   80/  5/  7 1014.4F

$$
FLZ066-069-070-075>078-162-262-165-265-211900-
SOUTHWEST FLORIDA AND KEYS

CITY           SKY/WX    TMP DP  RH WIND       PRES   REMARKS
PUNTA GORDA    CLOUDY    77  68  73 E5        29.97F
FT MYERS       CLOUDY    81  68  64 S8        29.94F
SOUTHWEST INTL MOSUNNY   80  68  66 VRB7      29.95F
NAPLES         SUNNY     80  65  59 SW9       29.95F
MARCO ISLAND   CLOUDY    82  67  60 S10       29.96F
IMMOKALEE      FAIR      84  66  54 CALM      29.96F
MARATHON       PTSUNNY   80  70  71 NE8       29.93F
KEY WEST NAS   PTSUNNY   79  73  82 E3        29.95F
KEY WEST INTL  CLOUDY    79  68  69 E5        29.95F

STATION/POSITION SKY/WX   TEMP    WIND        PRES    WAVE   SWELL
                          AIR SEA DIR/SP/G            HT/PER HT/PER
                          (F)     (DEG/KT/KT) (MB)    (FT/S) (FT/S)
NAPLES                        74  210/  6/  7 1014.3F
DRY TORTUGAS               78     120/  8/  9 1013.6F
SAND KEY                   78                 1014.7F
MOLASSES REEF              79 80  160/  6/  7 1014.3F

$$
FLZ067-068-071>074-168-172>174-211900-
SOUTHEAST FLORIDA

CITY           SKY/WX    TMP DP  RH WIND       PRES   REMARKS
W PALM BEACH   MOSUNNY   83  66  56 SW8       29.95F
BOCA RATON     MOSUNNY   81  66  61 S7        29.95F
FT LAUDER-EXEC MOSUNNY   82  65  56 SW9       29.94F
FT LAUDERDALE  PTSUNNY   81  69  67 SE6       29.94F
POMPANO BEACH  MOSUNNY   82  70  66 SE9       29.94F
PEMBROKE PINES PTSUNNY   82  66  58 VRB5      29.96F
OPA LOCKA      MOSUNNY   83  68  60 SW7       29.95F
MIAMI          MOSUNNY   84  68  58 S6        29.94F
WEST KENDALL   MOSUNNY   81  68  64 MISG      29.94F
HOMESTEAD      SUNNY     83  73  71 S6        29.94F

STATION/POSITION SKY/WX   TEMP    WIND        PRES    WAVE   SWELL
                          AIR SEA DIR/SP/G            HT/PER HT/PER
                          (F)     (DEG/KT/KT) (MB)    (FT/S) (FT/S)
PORT EVERGLADES            80     140/  7/  9 1014.2F
VIRGINIA KEY               78 78  210/  5/  6 1014.2F
LAKE WORTH                 79 79  100/  2/  3 1015.5F
FOWEY ROCKS                80 79  190/  4/  4 1014.7F
SETTLEMENT POINT           77      CALM  /  2 1015.1F

$$





USA.gov is the U.S. government's official web portal to all federal, state and local government web resources and services.